Language: 


Des rapports , des résumés tant et plus, au choix de chacun....


Données statistiques de la station
Quotidien Rapport Décembre 15, 2017 Unités:  Anglais    Métrique   les deux
« Précédent Jour
Suivant Jour »
Quotidien Hebdomadaire Mensuel Annuel Actuel
  Haut: Bas: Moyen:
Température: TemperatureC °F 1.0 °F 2.9 °F
Pt de rosée: DewpointC °F 1.0 °F 2.9 °F
Humidité: Humidity % 98 % 98 %
Vitesse du vent: WindSpeedKMH mph 0.0 mph 3.3 mph
Rafales: WindSpeedGustKMH mph - -
Vent:- - WSW
Pression: PressurehPa in 989.1 in -
Précipitation: 2.5 in    
Historical Graphs
 
 
Données statistiques pour Décembre 15, 2017
Heure Température Point de rosée Pression Vent Vitesse du vent Refales Humidité Pluie (taux horaire)
TemperatureC °F DewpointC °F PressurehPa in Calm     Humidity % HourlyPrecipMM in
00:04 1.1 °F 1.0 °F 989.1 in Calm   5.0 mph 98 % 0.0 in
00:09 1.2 °F 1.0 °F 989.1 in Calm   6.9 mph 98 % 0.0 in
00:14 1.3 °F 1.0 °F 989.1 in Calm   6.9 mph 98 % 0.0 in
00:19 1.4 °F 1.0 °F 989.1 in SW 8.7 mph 10.1 mph 98 % 0.0 in
00:24 1.5 °F 2.0 °F 989.1 in SW 10.1 mph 10.1 mph 98 % 0.0 in
00:30 1.6 °F 2.0 °F 990.1 in Calm   10.1 mph 98 % 0.0 in
00:35 1.7 °F 2.0 °F 990.1 in SSW 8.7 mph 10.5 mph 98 % 0.0 in
00:40 1.8 °F 2.0 °F 990.1 in SSW 6.4 mph 10.5 mph 98 % 0.0 in
00:45 1.9 °F 2.0 °F 989.1 in Calm   12.2 mph 98 % 0.0 in
00:50 1.9 °F 2.0 °F 989.1 in SSW 9.3 mph 12.2 mph 98 % 0.0 in
00:55 2.0 °F 2.0 °F 989.1 in SW 8.7 mph 12.2 mph 98 % 0.0 in
01:00 2.0 °F 2.0 °F 990.1 in SW 3.5 mph 12.2 mph 98 % 0.0 in
01:05 2.1 °F 2.0 °F 990.1 in SSW 9.0 mph 11.9 mph 98 % 0.0 in
01:06 2.1 °F 2.0 °F 990.1 in Calm   11.9 mph 98 % 0.0 in
01:12 2.1 °F 2.0 °F 989.1 in SW 5.8 mph 9.0 mph 98 % 0.0 in
01:17 2.1 °F 2.0 °F 989.1 in Calm   10.1 mph 98 % 0.0 in
01:22 2.2 °F 2.0 °F 989.1 in Calm   10.8 mph 98 % 0.0 in
01:27 2.3 °F 3.0 °F 989.1 in SW 9.0 mph 11.6 mph 98 % 0.0 in
01:32 2.4 °F 3.0 °F 989.1 in WSW 8.7 mph 11.6 mph 98 % 0.0 in
01:37 2.5 °F 3.0 °F 989.1 in SW 6.9 mph 13.0 mph 98 % 0.0 in
01:42 2.6 °F 3.0 °F 990.1 in SW 7.9 mph 13.0 mph 98 % 0.0 in
01:47 2.7 °F 3.0 °F 990.1 in WSW 8.7 mph 15.8 mph 98 % 0.3 in
01:52 2.7 °F 3.0 °F 990.1 in WSW 9.3 mph 15.8 mph 98 % 0.3 in
01:57 2.7 °F 3.0 °F 990.1 in WSW 9.7 mph 12.2 mph 98 % 0.3 in
02:02 2.8 °F 3.0 °F 990.1 in SW 10.1 mph 10.5 mph 98 % 0.3 in
02:07 2.8 °F 3.0 °F 990.1 in WSW 8.7 mph 10.5 mph 98 % 0.3 in
02:12 2.9 °F 3.0 °F 990.1 in SW 8.7 mph 10.5 mph 98 % 0.3 in
02:18 3.0 °F 3.0 °F 990.1 in WSW 3.2 mph 9.3 mph 98 % 0.8 in
02:23 3.0 °F 3.0 °F 990.1 in SW 6.4 mph 9.3 mph 98 % 1.0 in
02:28 3.1 °F 3.0 °F 990.1 in Calm   10.5 mph 98 % 1.0 in
02:33 3.1 °F 3.0 °F 990.1 in South 1.4 mph 10.5 mph 98 % 1.3 in
02:38 3.3 °F 3.0 °F 990.1 in Calm   8.7 mph 98 % 1.3 in
02:43 3.3 °F 3.0 °F 990.1 in SSW 3.2 mph 5.5 mph 98 % 1.5 in
02:48 3.3 °F 3.0 °F 990.1 in SSW 1.4 mph 5.8 mph 98 % 1.3 in
02:53 3.3 °F 3.0 °F 990.1 in Calm   6.1 mph 98 % 1.3 in
02:58 3.3 °F 3.0 °F 990.1 in Calm   6.1 mph 98 % 1.3 in
03:03 3.3 °F 3.0 °F 990.1 in Calm   4.7 mph 98 % 1.3 in
03:08 3.3 °F 3.0 °F 990.1 in SSW 5.8 mph 5.8 mph 98 % 1.3 in
03:09 3.3 °F 3.0 °F 990.1 in South 4.0 mph 5.8 mph 98 % 1.3 in
03:14 3.3 °F 3.0 °F 990.1 in SSW 4.0 mph 6.1 mph 98 % 0.8 in
03:19 3.3 °F 3.0 °F 990.1 in WSW 6.9 mph 7.6 mph 98 % 0.8 in
03:24 3.3 °F 3.0 °F 990.1 in SSW 4.3 mph 10.1 mph 98 % 0.5 in
03:29 3.3 °F 3.0 °F 991.1 in Calm   10.1 mph 98 % 0.5 in
03:34 3.2 °F 3.0 °F 991.1 in SW 8.7 mph 9.7 mph 98 % 0.3 in
03:39 3.2 °F 3.0 °F 991.1 in SW 5.5 mph 10.1 mph 98 % 0.3 in
03:44 3.3 °F 3.0 °F 990.1 in SSW 6.4 mph 10.1 mph 98 % 0.0 in
03:49 3.3 °F 3.0 °F 990.1 in SSW 10.5 mph 10.5 mph 98 % 0.0 in
03:54 3.3 °F 3.0 °F 990.1 in WSW 5.8 mph 10.5 mph 98 % 0.0 in
03:59 3.4 °F 3.0 °F 991.1 in SW 9.0 mph 10.5 mph 98 % 0.0 in
04:04 3.4 °F 3.0 °F 991.1 in WSW 8.7 mph 10.5 mph 98 % 0.0 in
04:09 3.4 °F 3.0 °F 991.1 in SW 7.2 mph 10.1 mph 98 % 0.0 in
04:14 3.4 °F 3.0 °F 991.1 in SSW 5.8 mph 10.1 mph 98 % 0.0 in
04:19 3.5 °F 4.0 °F 991.1 in SW 1.4 mph 9.7 mph 98 % 0.0 in
04:25 3.5 °F 4.0 °F 991.1 in SW 5.0 mph 9.0 mph 98 % 0.0 in
04:30 3.6 °F 4.0 °F 990.1 in SW 6.1 mph 9.0 mph 98 % 0.0 in
04:35 3.6 °F 4.0 °F 990.1 in WSW 8.7 mph 10.1 mph 98 % 0.0 in
04:40 3.6 °F 4.0 °F 990.1 in SW 7.9 mph 10.1 mph 98 % 0.0 in
04:45 3.5 °F 4.0 °F 991.1 in SW 6.9 mph 11.9 mph 98 % 0.0 in
04:50 3.5 °F 4.0 °F 991.1 in WSW 6.9 mph 11.9 mph 98 % 0.0 in
04:55 3.5 °F 4.0 °F 991.1 in WSW 7.6 mph 10.5 mph 98 % 0.0 in
05:00 3.5 °F 4.0 °F 991.1 in SW 9.0 mph 13.0 mph 98 % 0.0 in
05:05 3.5 °F 4.0 °F 991.1 in SW 7.6 mph 13.0 mph 98 % 0.0 in
05:10 3.6 °F 4.0 °F 991.1 in Calm   9.0 mph 98 % 0.0 in
05:15 3.6 °F 4.0 °F 991.1 in WSW 7.6 mph 10.1 mph 98 % 0.0 in
05:20 3.5 °F 4.0 °F 991.1 in SSW 6.4 mph 10.1 mph 98 % 0.0 in
05:26 3.5 °F 4.0 °F 991.1 in SSW 10.1 mph 10.1 mph 98 % 0.0 in
05:31 3.5 °F 4.0 °F 991.1 in Calm   10.1 mph 98 % 0.0 in
05:36 3.4 °F 3.0 °F 991.1 in SSW 5.5 mph 10.1 mph 98 % 0.0 in
05:41 3.5 °F 4.0 °F 991.1 in SSW 8.7 mph 8.7 mph 98 % 0.0 in
05:46 3.4 °F 3.0 °F 991.1 in WSW 6.9 mph 8.7 mph 98 % 0.0 in
05:47 3.4 °F 3.0 °F 991.1 in WSW 6.9 mph 8.7 mph 98 % 0.0 in
05:52 3.4 °F 3.0 °F 991.1 in WSW 6.9 mph 7.9 mph 98 % 0.0 in
05:54 3.4 °F 3.0 °F 991.1 in Calm   8.7 mph 98 % 0.0 in
06:00 3.4 °F 3.0 °F 991.1 in Calm   8.7 mph 98 % 0.0 in
06:05 3.3 °F 3.0 °F 991.1 in SW 4.3 mph 7.9 mph 98 % 0.0 in
06:10 3.3 °F 3.0 °F 991.1 in SW 4.7 mph 7.9 mph 98 % 0.0 in
06:16 3.3 °F 3.0 °F 991.1 in Calm   5.8 mph 98 % 0.0 in
06:21 3.2 °F 3.0 °F 991.1 in Calm   5.0 mph 98 % 0.0 in
06:26 3.2 °F 3.0 °F 991.1 in WSW 5.8 mph 7.2 mph 98 % 0.0 in
06:31 3.1 °F 3.0 °F 991.1 in Calm   7.9 mph 98 % 0.0 in
06:36 3.0 °F 3.0 °F 991.1 in Calm   7.9 mph 98 % 0.0 in
06:41 2.7 °F 3.0 °F 991.1 in SW 4.7 mph 6.4 mph 98 % 0.0 in
06:46 2.6 °F 3.0 °F 991.1 in Calm   6.4 mph 98 % 0.0 in
06:51 2.4 °F 3.0 °F 991.1 in Calm   4.0 mph 98 % 0.0 in
06:56 2.2 °F 2.0 °F 991.1 in Calm     98 % 0.0 in
07:01 2.0 °F 2.0 °F 991.1 in Calm     98 % 0.0 in
07:06 1.9 °F 2.0 °F 991.1 in Calm   1.8 mph 98 % 0.0 in
07:12 1.8 °F 2.0 °F 991.1 in Calm   1.8 mph 98 % 0.0 in
07:17 1.8 °F 2.0 °F 991.1 in Calm   4.3 mph 98 % 0.0 in
07:22 1.7 °F 2.0 °F 991.1 in Calm   4.3 mph 98 % 0.0 in
07:27 1.7 °F 2.0 °F 991.1 in Calm   4.0 mph 98 % 0.0 in
07:32 1.6 °F 2.0 °F 991.1 in Calm   4.0 mph 98 % 0.0 in
07:37 1.6 °F 2.0 °F 991.1 in SSW 4.7 mph 6.1 mph 98 % 0.0 in
07:42 1.7 °F 2.0 °F 991.1 in Calm   6.1 mph 98 % 0.0 in
07:47 1.8 °F 2.0 °F 991.1 in SSE 4.7 mph 5.5 mph 98 % 0.0 in
07:52 1.8 °F 2.0 °F 991.1 in SSW 1.8 mph 5.5 mph 98 % 0.0 in
07:57 1.9 °F 2.0 °F 990.1 in South 5.0 mph 5.8 mph 98 % 0.0 in
08:02 1.8 °F 2.0 °F 990.1 in South 4.7 mph 7.9 mph 98 % 0.0 in
08:07 1.5 °F 2.0 °F 990.1 in SSE 6.1 mph 7.9 mph 98 % 0.0 in
08:12 1.4 °F 1.0 °F 991.1 in Calm   6.1 mph 98 % 0.0 in
08:17 1.4 °F 1.0 °F 991.1 in Calm   5.0 mph 98 % 0.0 in
08:22 1.3 °F 1.0 °F 991.1 in Calm   4.0 mph 98 % 0.0 in
08:27 1.2 °F 1.0 °F 991.1 in South 5.5 mph 5.5 mph 98 % 0.0 in
08:32 1.2 °F 1.0 °F 991.1 in Calm   5.5 mph 98 % 0.0 in
08:37 1.2 °F 1.0 °F 991.1 in SSW 4.3 mph 5.5 mph 98 % 0.0 in
08:42 1.1 °F 1.0 °F 991.1 in SSW 1.4 mph 5.5 mph 98 % 0.0 in
08:47 1.0 °F 1.0 °F 991.1 in Calm   4.7 mph 98 % 0.0 in
08:50 1.0 °F 1.0 °F 991.1 in Calm   5.0 mph 98 % 0.0 in
08:55 1.1 °F 1.0 °F 991.1 in SW 2.1 mph 6.1 mph 98 % 0.0 in
09:00 1.3 °F 1.0 °F 991.1 in Calm   6.1 mph 98 % 0.0 in
09:05 1.4 °F 1.0 °F 991.1 in Calm   5.8 mph 98 % 0.0 in
09:10 1.4 °F 1.0 °F 991.1 in Calm   4.0 mph 98 % 0.0 in
09:15 1.4 °F 1.0 °F 992.1 in Calm     98 % 0.0 in
09:20 1.2 °F 1.0 °F 992.1 in WSW 1.4 mph 1.4 mph 98 % 0.0 in
09:25 1.1 °F 1.0 °F 992.1 in Calm   1.4 mph 98 % 0.0 in
09:30 1.1 °F 1.0 °F 992.1 in Calm   1.4 mph 98 % 0.0 in
09:35 1.1 °F 1.0 °F 992.1 in Calm   5.0 mph 98 % 0.0 in
09:40 1.1 °F 1.0 °F 992.1 in Calm   5.0 mph 98 % 0.0 in
09:46 1.1 °F 1.0 °F 992.1 in SW 4.0 mph 4.3 mph 98 % 0.0 in
09:51 1.1 °F 1.0 °F 992.1 in Calm   4.7 mph 98 % 0.0 in
09:56 1.1 °F 1.0 °F 993.1 in Calm   4.7 mph 98 % 0.0 in
10:01 1.1 °F 1.0 °F 993.1 in SW 6.1 mph 6.1 mph 98 % 0.0 in
10:06 1.1 °F 1.0 °F 993.1 in Calm   6.1 mph 98 % 0.0 in
10:11 1.1 °F 1.0 °F 993.1 in Calm   5.8 mph 98 % 0.0 in
10:16 1.1 °F 1.0 °F 993.1 in West 1.4 mph 5.8 mph 98 % 0.0 in
10:21 1.1 °F 1.0 °F 993.1 in Calm   5.8 mph 98 % 0.0 in
10:26 1.1 °F 1.0 °F 993.1 in Calm   5.0 mph 98 % 0.0 in
10:32 1.1 °F 1.0 °F 993.1 in SW 4.3 mph 4.3 mph 98 % 0.0 in
10:37 1.1 °F 1.0 °F 993.1 in Calm   7.6 mph 98 % 0.0 in
10:42 1.1 °F 1.0 °F 993.1 in SSW 5.8 mph 7.6 mph 98 % 0.0 in
10:47 1.1 °F 1.0 °F 993.1 in Calm   7.6 mph 98 % 0.0 in
10:52 1.1 °F 1.0 °F 993.1 in Calm   6.9 mph 98 % 0.0 in
10:57 1.1 °F 1.0 °F 993.1 in WSW 2.6 mph 2.6 mph 98 % 0.0 in
11:02 1.1 °F 1.0 °F 993.1 in Calm   5.0 mph 98 % 0.0 in
11:07 1.1 °F 1.0 °F 993.1 in Calm   5.0 mph 98 % 0.0 in
11:12 1.1 °F 1.0 °F 993.1 in Calm     98 % 0.0 in
11:17 1.1 °F 1.0 °F 993.1 in SW 8.7 mph 10.1 mph 98 % 0.0 in
11:22 1.1 °F 1.0 °F 993.1 in SW 5.5 mph 10.1 mph 98 % 0.0 in
11:27 1.1 °F 1.0 °F 993.1 in Calm   8.7 mph 98 % 0.0 in
11:32 1.1 °F 1.0 °F 993.1 in Calm   8.7 mph 98 % 0.0 in
11:37 1.1 °F 1.0 °F 993.1 in SW 4.0 mph 6.1 mph 98 % 0.0 in
11:42 1.1 °F 1.0 °F 993.1 in Calm   9.0 mph 98 % 0.0 in
11:47 1.1 °F 1.0 °F 993.1 in SSW 5.5 mph 9.0 mph 98 % 0.0 in
11:52 1.1 °F 1.0 °F 993.1 in SW 7.9 mph 9.3 mph 98 % 0.0 in
11:57 1.1 °F 1.0 °F 993.1 in WSW 6.1 mph 9.3 mph 98 % 0.0 in
12:02 1.1 °F 1.0 °F 993.1 in SW 7.9 mph 10.8 mph 98 % 0.0 in
12:08 1.1 °F 1.0 °F 993.1 in WSW 6.9 mph 10.8 mph 98 % 0.0 in
12:13 1.1 °F 1.0 °F 993.1 in WSW 6.9 mph 10.8 mph 98 % 0.0 in
12:18 1.1 °F 1.0 °F 993.1 in West 10.1 mph 10.8 mph 98 % 0.0 in
12:23 1.1 °F 1.0 °F 993.1 in West 9.0 mph 10.5 mph 98 % 0.0 in
12:28 1.1 °F 1.0 °F 993.1 in Calm   9.0 mph 98 % 0.0 in
12:33 1.1 °F 1.0 °F 993.1 in Calm   7.6 mph 98 % 0.0 in
12:36 1.1 °F 1.0 °F 993.1 in WSW 10.8 mph 10.8 mph 98 % 0.0 in
12:41 1.1 °F 1.0 °F 993.1 in WSW 9.0 mph 14.8 mph 98 % 0.0 in
12:46 1.1 °F 1.0 °F 993.1 in West 5.8 mph 14.8 mph 98 % 0.0 in
12:51 1.1 °F 1.0 °F 993.1 in NNW 4.0 mph 9.3 mph 98 % 0.0 in
12:56 1.1 °F 1.0 °F 994.1 in WSW 10.1 mph 11.1 mph 98 % 0.0 in
13:01 1.1 °F 1.0 °F 994.1 in West 6.9 mph 11.6 mph 98 % 0.0 in
13:06 1.1 °F 1.0 °F 994.1 in WSW 4.7 mph 11.6 mph 98 % 0.0 in
13:11 1.1 °F 1.0 °F 994.1 in SW 9.7 mph 10.1 mph 98 % 0.0 in
13:16 1.1 °F 1.0 °F 994.1 in West 9.0 mph 10.8 mph 98 % 0.0 in
13:21 1.1 °F 1.0 °F 994.1 in WSW 4.3 mph 10.8 mph 98 % 0.0 in
13:22 1.1 °F 1.0 °F 994.1 in Calm   10.8 mph 98 % 0.0 in
13:27 1.1 °F 1.0 °F 994.1 in Calm   8.7 mph 98 % 0.0 in
13:32 1.1 °F 1.0 °F 994.1 in WSW 6.1 mph 6.1 mph 98 % 0.0 in
13:37 1.1 °F 1.0 °F 994.1 in WSW 4.0 mph 6.9 mph 98 % 0.0 in
13:43 1.1 °F 1.0 °F 994.1 in West 6.9 mph 9.7 mph 98 % 0.0 in
13:48 1.1 °F 1.0 °F 994.1 in West 3.5 mph 9.7 mph 98 % 0.0 in
13:53 1.1 °F 1.0 °F 994.1 in Calm   11.6 mph 98 % 0.0 in
13:58 1.1 °F 1.0 °F 994.1 in Calm   11.6 mph 98 % 0.0 in
14:03 1.1 °F 1.0 °F 994.1 in Calm   8.7 mph 98 % 0.0 in
14:08 1.1 °F 1.0 °F 994.1 in Calm     98 % 0.3 in
14:13 1.1 °F 1.0 °F 994.1 in Calm   5.8 mph 98 % 0.3 in
14:18 1.1 °F 1.0 °F 994.1 in West 5.8 mph 7.2 mph 98 % 0.3 in
14:23 1.1 °F 1.0 °F 994.1 in Calm   9.7 mph 98 % 0.3 in
14:28 1.1 °F 1.0 °F 994.1 in West 5.5 mph 9.7 mph 98 % 0.3 in
14:33 5.0 °F 5.0 °F 994.1 in West 1.4 mph 9.3 mph 98 % 0.3 in
14:38 5.0 °F 5.0 °F 994.1 in Calm   9.3 mph 98 % 0.3 in
14:43 5.0 °F 5.0 °F 994.1 in West 5.5 mph 8.7 mph 98 % 0.3 in
14:48 5.0 °F 5.0 °F 994.1 in West 7.9 mph 9.7 mph 98 % 0.3 in
14:53 5.0 °F 5.0 °F 994.1 in West 9.7 mph 9.7 mph 98 % 0.3 in
14:58 5.0 °F 5.0 °F 994.1 in Calm   11.6 mph 98 % 0.3 in
15:03 5.0 °F 5.0 °F 994.1 in Calm   9.3 mph 98 % 0.3 in
15:08 5.0 °F 5.0 °F 994.1 in Calm   7.9 mph 98 % 0.0 in
15:12 5.0 °F 5.0 °F 995.1 in Calm   6.4 mph 98 % 0.0 in
15:17 5.0 °F 5.0 °F 995.1 in Calm   6.4 mph 98 % 0.0 in
15:22 5.0 °F 5.0 °F 995.1 in Calm   5.0 mph 98 % 0.0 in
15:27 5.0 °F 5.0 °F 995.1 in Calm   5.0 mph 98 % 0.0 in
15:32 5.0 °F 5.0 °F 995.1 in Calm   4.7 mph 98 % 0.0 in
15:37 4.9 °F 5.0 °F 995.1 in Calm   2.6 mph 98 % 0.0 in
15:42 4.9 °F 5.0 °F 995.1 in Calm   5.8 mph 98 % 0.0 in
15:47 4.9 °F 5.0 °F 995.1 in Calm   5.8 mph 98 % 0.0 in
15:52 5.0 °F 5.0 °F 995.1 in West 6.1 mph 6.1 mph 98 % 0.0 in
15:57 5.0 °F 5.0 °F 995.1 in WSW 10.1 mph 13.0 mph 98 % 0.0 in
16:02 4.8 °F 5.0 °F 995.1 in WNW 6.1 mph 14.0 mph 98 % 0.0 in
16:07 4.8 °F 5.0 °F 995.1 in Calm   14.0 mph 98 % 0.0 in
16:12 4.8 °F 5.0 °F 995.1 in West 6.4 mph 8.7 mph 98 % 0.0 in
16:17 4.7 °F 5.0 °F 995.1 in Calm   8.7 mph 98 % 0.0 in
16:22 4.7 °F 5.0 °F 995.1 in Calm   7.9 mph 98 % 0.0 in
16:27 4.6 °F 5.0 °F 995.1 in West 10.5 mph 10.5 mph 98 % 0.0 in
16:32 4.6 °F 5.0 °F 995.1 in WSW 2.1 mph 10.5 mph 98 % 0.0 in
16:37 4.6 °F 5.0 °F 995.1 in WSW 7.9 mph 8.7 mph 98 % 0.0 in
16:42 4.3 °F 4.0 °F 996.2 in Calm   9.0 mph 98 % 0.0 in
16:47 4.3 °F 4.0 °F 996.2 in West 6.1 mph 14.0 mph 98 % 0.0 in
16:48 4.3 °F 4.0 °F 996.2 in Calm   14.0 mph 98 % 0.0 in
16:53 4.3 °F 4.0 °F 996.2 in Calm   14.0 mph 98 % 0.0 in
16:58 4.2 °F 4.0 °F 996.2 in SW 5.0 mph 12.6 mph 98 % 0.0 in
17:03 4.4 °F 4.0 °F 996.2 in WNW 5.8 mph 12.6 mph 98 % 0.0 in
17:09 4.5 °F 5.0 °F 996.2 in WNW 9.7 mph 15.1 mph 98 % 0.3 in
17:14 4.7 °F 5.0 °F 996.8 in Calm   15.1 mph 98 % 0.3 in
17:19 4.8 °F 5.0 °F 996.8 in Calm   14.0 mph 98 % 0.3 in
17:24 4.8 °F 5.0 °F 996.8 in Calm   14.0 mph 98 % 0.3 in
17:29 4.8 °F 5.0 °F 996.8 in Calm   10.1 mph 98 % 0.3 in
17:34 4.8 °F 5.0 °F 996.8 in WSW 5.0 mph 5.5 mph 98 % 0.3 in
17:39 4.7 °F 5.0 °F 996.8 in West 4.0 mph 5.5 mph 98 % 0.3 in
17:44 4.8 °F 5.0 °F 996.8 in West 4.7 mph 6.1 mph 98 % 0.3 in
17:49 4.7 °F 5.0 °F 996.8 in Calm   6.1 mph 98 % 0.5 in
17:54 4.7 °F 5.0 °F 996.8 in Calm   6.1 mph 98 % 0.5 in
17:59 4.6 °F 5.0 °F 996.8 in Calm   5.0 mph 98 % 0.5 in
18:04 4.5 °F 5.0 °F 996.8 in Calm   5.0 mph 98 % 0.3 in
18:09 4.4 °F 4.0 °F 996.8 in Calm   6.4 mph 98 % 0.3 in
18:14 4.3 °F 4.0 °F 996.8 in Calm   6.4 mph 98 % 0.3 in
18:19 4.1 °F 4.0 °F 996.8 in West 2.1 mph 6.1 mph 98 % 0.3 in
18:24 4.0 °F 4.0 °F 996.8 in Calm   5.5 mph 98 % 0.3 in
18:30 4.0 °F 4.0 °F 996.8 in Calm   6.9 mph 98 % 0.3 in
18:35 4.0 °F 4.0 °F 996.8 in Calm   6.9 mph 98 % 0.3 in
18:40 4.3 °F 4.0 °F 996.8 in West 5.5 mph 5.8 mph 98 % 0.3 in
18:45 4.4 °F 4.0 °F 997.9 in Calm   5.8 mph 98 % 0.3 in
18:50 4.5 °F 5.0 °F 997.9 in Calm   7.9 mph 98 % 0.0 in
18:55 4.6 °F 5.0 °F 997.9 in Calm   7.9 mph 98 % 0.0 in
19:00 4.6 °F 5.0 °F 997.9 in Calm   6.9 mph 98 % 0.0 in
19:05 4.6 °F 5.0 °F 997.9 in Calm   7.9 mph 98 % 0.0 in
19:10 4.7 °F 5.0 °F 997.9 in North 3.5 mph 7.9 mph 98 % 0.0 in
19:15 4.7 °F 5.0 °F 997.9 in North 6.1 mph 9.3 mph 98 % 0.0 in
19:20 4.7 °F 5.0 °F 997.9 in North 9.3 mph 13.7 mph 98 % 0.0 in
19:25 4.7 °F 5.0 °F 998.9 in North 5.0 mph 16.6 mph 98 % 0.0 in
19:31 4.8 °F 5.0 °F 998.9 in North 6.9 mph 16.6 mph 98 % 0.0 in
19:36 4.8 °F 5.0 °F 998.9 in Calm   11.9 mph 98 % 0.0 in
19:41 4.8 °F 5.0 °F 998.9 in Calm   9.7 mph 98 % 0.0 in
19:46 4.7 °F 5.0 °F 998.9 in NW 1.8 mph 11.9 mph 98 % 0.0 in
19:51 4.7 °F 5.0 °F 998.9 in NNW 5.5 mph 11.9 mph 98 % 0.0 in
19:56 4.7 °F 5.0 °F 998.9 in North 9.0 mph 11.6 mph 98 % 0.0 in
20:01 4.5 °F 5.0 °F 998.9 in North 4.3 mph 11.6 mph 98 % 0.0 in
20:06 4.4 °F 4.0 °F 998.9 in Calm   10.5 mph 98 % 0.0 in
20:11 4.4 °F 4.0 °F 998.9 in North 5.0 mph 10.5 mph 98 % 0.0 in
20:16 4.4 °F 4.0 °F 998.9 in NNE 1.4 mph 11.6 mph 98 % 0.0 in
20:21 4.4 °F 4.0 °F 998.9 in NNW 10.1 mph 13.0 mph 98 % 0.0 in
20:26 4.4 °F 4.0 °F 999.9 in North 9.7 mph 14.8 mph 98 % 0.0 in
20:31 4.4 °F 4.0 °F 999.9 in North 10.1 mph 14.8 mph 98 % 0.0 in
20:37 4.4 °F 4.0 °F 999.9 in NNW 5.5 mph 13.0 mph 98 % 0.0 in
20:42 4.3 °F 4.0 °F 1000.9 in NNW 8.7 mph 15.1 mph 98 % 0.0 in
20:47 4.2 °F 4.0 °F 1000.9 in Calm   15.1 mph 98 % 0.0 in
20:52 4.1 °F 4.0 °F 1000.9 in North 8.7 mph 10.1 mph 98 % 0.0 in
20:57 4.0 °F 4.0 °F 999.9 in Calm   10.1 mph 98 % 0.0 in
21:02 4.0 °F 4.0 °F 999.9 in NNW 6.9 mph 10.1 mph 98 % 0.0 in
21:07 4.0 °F 4.0 °F 999.9 in NNW 5.0 mph 13.7 mph 98 % 0.0 in
21:12 4.0 °F 4.0 °F 1000.9 in NNW 10.1 mph 13.7 mph 98 % 0.0 in
21:17 4.0 °F 4.0 °F 1000.9 in NNE 10.1 mph 13.0 mph 98 % 0.0 in
21:22 4.0 °F 4.0 °F 1000.9 in NW 1.8 mph 10.1 mph 98 % 0.0 in
21:27 4.0 °F 4.0 °F 1000.9 in NNW 9.3 mph 10.5 mph 98 % 0.0 in
21:33 4.0 °F 4.0 °F 1000.9 in NNE 8.7 mph 10.5 mph 98 % 0.0 in
21:38 4.0 °F 4.0 °F 1000.9 in North 5.0 mph 9.3 mph 98 % 0.0 in
21:43 4.0 °F 4.0 °F 1001.9 in NNW 5.5 mph 9.0 mph 98 % 0.0 in
21:49 4.0 °F 4.0 °F 1001.9 in Calm   6.4 mph 98 % 0.0 in
21:54 4.0 °F 4.0 °F 1001.9 in Calm   8.7 mph 98 % 0.0 in
21:59 4.0 °F 4.0 °F 1001.9 in Calm   8.7 mph 98 % 0.0 in
22:04 4.0 °F 4.0 °F 1001.9 in Calm   7.6 mph 98 % 0.0 in
22:09 4.0 °F 4.0 °F 1001.9 in North 3.5 mph 3.5 mph 98 % 0.0 in
22:14 4.0 °F 4.0 °F 1001.9 in Calm   3.5 mph 98 % 0.0 in
22:19 4.0 °F 4.0 °F 1001.9 in Calm     98 % 0.0 in
22:24 4.0 °F 4.0 °F 1001.9 in Calm     98 % 0.0 in
22:29 3.2 °F 3.0 °F 1002.9 in Calm     98 % 0.0 in
22:35 3.2 °F 3.0 °F 1002.9 in Calm   2.6 mph 98 % 0.0 in
22:40 3.2 °F 3.0 °F 1002.9 in North 3.5 mph 4.0 mph 98 % 0.0 in
22:45 3.2 °F 3.0 °F 1002.9 in NNW 3.5 mph 4.0 mph 98 % 0.0 in
22:50 3.2 °F 3.0 °F 1002.9 in Calm   3.5 mph 98 % 0.0 in
22:55 3.2 °F 3.0 °F 1002.9 in Calm     98 % 0.0 in
23:00 3.2 °F 3.0 °F 1002.9 in Calm     98 % 0.0 in
23:05 3.2 °F 3.0 °F 1002.9 in Calm     98 % 0.0 in
23:10 3.2 °F 3.0 °F 1002.9 in Calm   4.3 mph 98 % 0.0 in
23:13 3.2 °F 3.0 °F 1002.9 in Calm   4.3 mph 98 % 0.0 in
23:18 3.2 °F 3.0 °F 1002.9 in Calm   4.3 mph 98 % 0.0 in
23:23 3.2 °F 3.0 °F 1002.9 in North 4.7 mph 4.7 mph 98 % 0.0 in
23:29 3.2 °F 3.0 °F 1002.9 in Calm   4.7 mph 98 % 0.0 in
23:33 3.2 °F 3.0 °F 1002.9 in Calm   4.7 mph 98 % 0.0 in
23:38 3.2 °F 3.0 °F 1002.9 in Calm   1.4 mph 98 % 0.0 in
23:43 3.2 °F 3.0 °F 1003.9 in Calm   8.7 mph 98 % 0.0 in
23:48 3.2 °F 3.0 °F 1003.9 in Calm   8.7 mph 98 % 0.0 in
23:49 3.2 °F 3.0 °F 1003.9 in Calm   8.7 mph 98 % 0.0 in
23:54 3.2 °F 3.0 °F 1003.9 in WNW 4.3 mph 5.8 mph 98 % 0.0 in
23:59 3.2 °F 3.0 °F 1003.9 in Calm   5.5 mph 98 % 0.0 in
Le Gheer Warneton
Courtoisie de Weather Underground - 2.25 mb

Mise a jour : 25/02/2018 14:59:11
Généré par Cumulus 1.9.4 (1099)